DMSP 5D-2 F13 DEB, 40677

Orbit data source: Space-Track

DMSP 5D-2 F13 DEB, 40677 is space debris in SSO originally from a launch on Fri, 24 Mar 1995 UTC launched from the Air Force Western Test Range (AFWTR). Debris objects in space refer to the collection of defunct objects orbiting the Earth. Examples of debris include non-operational satellites, rocket bodies, and fragments generated from explosions, collisions, or faulty payload assembly.

Loading next visibility...
Identifier
40677, 1995-015FR
Orbit
SSO
Country
Flag of USUS
Related business
Manufacturer
Unknown
Mission
Spacecraft
Bus & Motor
Unknown
Mass
Unknown
Launch date (UTC)
1995-03-24 (31 years ago)
Launch vehicle
Unknown
Launch site
Air Force Western Test Range (AFWTR)
Object type
Payload
Rocket body
Debris
Shape & HBR
Unknown shape, 0.1 m
Radar Cross Section
Small (<0.1 m²)

Expand to show TLE details & history
Last TLE update: 2 days ago

TLE from 2 days ago
0 DMSP 5D-2 F13 DEB
1 40677U 95015FR  26124.29956357  .00000467  00000-0  20273-3 0  9999
2 40677  98.5925 141.8677 0048951  34.8135 325.6233 14.28091683574168
Epoch: 2026-05-04T07:11Z
TLE epoch observation values (Epoch: 2026-05-04T07:11:22.292Z)
Latitude
0.00004°
Longitude
171.83406°
Altitude
772.102 km
Speed
7.483 km/s
True Right ascension
09h 27m 28s
True Declination
0° 00' 00"
Sunlit
Object was in daylight at epoch
Visualization orbit readout
Latitude
Unknown
Longitude
Unknown
Altitude
Unknown
Speed
Unknown
Apparent Right ascension
Unknown
Apparent Declination
Unknown
Sunlit
N/A
Visualization observer readout
Local Sidereal Time
00:03:11
Azimuth
Unknown
Elevation
Unknown
Doppler factor
Unknown
Orbital elements
Apogee altitude
830.373 km
Perigee altitude
760.144 km
Semi-major axis
7,173.396 km
Eccentricity
0.0049
Inclination
98.5925°
RAAN
141.8677°
Arg. of periapsis
34.8135°
True anomaly
325.30497°
Mean anomaly
325.6233°
Eccentric anomaly
325.4643°
Mean motion
3.57237 °/min
Orbital period
100.77 mins
BSTAR
0.00020273

Documentation

Showing up to 5 results
|